Clarion, IA

8:47 AM CST on February 23, 2017 (GMT -0600)
Clarion Municipal

Weather History for KCAV - November, 2013

Change the Weather History Date:

Friday, November 15, 2013

  Actual Average Record
Temperature  
Mean Temperature 40 °F -  
Max Temperature 53 °F 43 °F 72 °F (1990)
Min Temperature 26 °F 24 °F 0 °F (1959)
Degree Days  
Heating Degree Days 26    
Moisture  
Dew Point 32 °F    
Average Humidity 75    
Maximum Humidity 93    
Minimum Humidity 50    
Precipitation  
Precipitation 0.00 in - - ()
Sea Level Pressure  
Sea Level Pressure 29.81 in    
Wind  
Wind Speed 8 mph (South)    
Max Wind Speed 16 mph    
Max Gust Speed -    
Visibility 10 miles    
Events      
Averages and records for this station are not official NWS values.
T = Trace of Precipitation, MM = Missing Value Source: NWS Daily Summary

Daily Weather History Graph

Daily Weather History Graph

Search for Another Location

Airport or City:

Trip Planner

Search our weather history database for the weather conditions in past years. The results will help you decide how hot, cold, wet, or windy it might be!

Date:

Astronomy

Nov. 15, 2013 Rise Set
Actual Time 7:07 AM CST 4:51 PM CST
Civil Twilight 6:36 AM CST 5:22 PM CST
Nautical Twilight 6:02 AM CST 5:56 PM CST
Astronomical Twilight 5:29 AM CST 6:29 PM CST
Moon 3:51 PM CST (11/15) 5:01 AM CST (11/15)
Length of Visible Light 10h 45m
Length of Day
9h 44m
Waxing Gibbous, 96% of the Moon is Illuminated
Nov 15
Waxing Gibbous
Nov 17
Full
Nov 25
Last Quarter
Dec 2
New
Dec 9
First Quarter

Hourly Weather History & Observations

Time (CST) Temp. Windchill Dew Point Humidity Pressure Visibility Wind Dir Wind Speed Gust Speed Precip Events Conditions
12:15 AM 30.2 °F 25.4 °F 26.6 °F 86% 29.87 in 10.0 mi South 4.6 mph - N/A   Clear
12:55 AM 28.4 °F 22.2 °F 26.6 °F 93% 29.87 in 10.0 mi SSE 5.8 mph - N/A   Clear
1:15 AM 28.4 °F 22.2 °F 26.6 °F 93% 29.87 in 10.0 mi SSE 5.8 mph - N/A   Clear
1:35 AM 28.4 °F 22.2 °F 26.6 °F 93% 29.87 in 10.0 mi SSE 5.8 mph - N/A   Clear
1:55 AM 28.4 °F 22.2 °F 26.6 °F 93% 29.87 in 10.0 mi South 5.8 mph - N/A   Clear
2:15 AM 28.4 °F 22.2 °F 26.6 °F 93% 29.87 in 10.0 mi South 5.8 mph - N/A   Clear
2:35 AM 28.4 °F 22.2 °F 26.6 °F 93% 29.87 in 10.0 mi South 5.8 mph - N/A   Clear
2:55 AM 28.4 °F 21.2 °F 26.6 °F 93% 29.87 in 10.0 mi South 6.9 mph - N/A   Clear
3:15 AM 28.4 °F 22.2 °F 26.6 °F 93% 29.87 in 10.0 mi South 5.8 mph - N/A   Clear
3:35 AM 28.4 °F 20.4 °F 26.6 °F 93% 29.86 in 10.0 mi South 8.1 mph - N/A   Clear
3:55 AM 28.4 °F 21.2 °F 26.6 °F 93% 29.87 in 10.0 mi South 6.9 mph - N/A   Clear
4:15 AM 28.4 °F 21.2 °F 26.6 °F 93% 29.87 in 10.0 mi South 6.9 mph - N/A   Clear
4:35 AM 26.6 °F 18.2 °F 24.8 °F 93% 29.86 in 10.0 mi South 8.1 mph - N/A   Clear
4:55 AM 26.6 °F 19.1 °F 24.8 °F 93% 29.87 in 10.0 mi South 6.9 mph - N/A   Clear
5:15 AM 26.6 °F 19.1 °F 24.8 °F 93% 29.87 in 10.0 mi South 6.9 mph - N/A   Clear
5:35 AM 26.6 °F 19.1 °F 24.8 °F 93% 29.87 in 10.0 mi South 6.9 mph - N/A   Clear
5:55 AM 26.6 °F 19.1 °F 24.8 °F 93% 29.86 in 10.0 mi South 6.9 mph - N/A   Clear
6:15 AM 26.6 °F 19.1 °F 24.8 °F 93% 29.86 in 10.0 mi SSE 6.9 mph - N/A   Clear
6:35 AM 28.4 °F 22.2 °F 26.6 °F 93% 29.85 in 10.0 mi SSE 5.8 mph - N/A   Clear
6:55 AM 28.4 °F 23.3 °F 26.6 °F 93% 29.85 in 9.0 mi SSE 4.6 mph - N/A   Clear
7:15 AM 28.4 °F 23.3 °F 26.6 °F 93% 29.87 in 9.0 mi SSE 4.6 mph - N/A   Clear
7:35 AM 30.2 °F 24.3 °F 26.6 °F 86% 29.87 in 8.0 mi SSE 5.8 mph - N/A   Clear
7:55 AM 30.2 °F 23.4 °F 28.4 °F 93% 29.87 in 9.0 mi South 6.9 mph - N/A   Clear
8:15 AM 33.8 °F 28.6 °F 30.2 °F 87% 29.88 in 9.0 mi South 5.8 mph - N/A   Clear
8:35 AM 33.8 °F 28.6 °F 32.0 °F 93% 29.88 in 9.0 mi SSW 5.8 mph - N/A   Clear
8:55 AM 37.4 °F 32.8 °F 32.0 °F 81% 29.88 in 10.0 mi SSW 5.8 mph - N/A   Clear
9:15 AM 39.2 °F 35.0 °F 32.0 °F 75% 29.88 in 10.0 mi SSW 5.8 mph - N/A   Clear
9:35 AM 41.0 °F 36.4 °F 33.8 °F 76% 29.88 in 10.0 mi South 6.9 mph - N/A   Clear
9:55 AM 42.8 °F 39.3 °F 33.8 °F 70% 29.88 in 10.0 mi South 5.8 mph - N/A   Clear
10:15 AM 46.4 °F 44.3 °F 35.6 °F 66% 29.87 in 10.0 mi South 4.6 mph - N/A   Clear
10:35 AM 48.2 °F - 37.4 °F 66% 29.87 in 10.0 mi South 8.1 mph - N/A   Clear
10:55 AM 50.0 °F - 37.4 °F 62% 29.87 in 10.0 mi South 9.2 mph - N/A   Clear
11:15 AM 50.0 °F - 37.4 °F 62% 29.86 in 10.0 mi South 10.4 mph - N/A   Clear
11:35 AM 50.0 °F - 35.6 °F 58% 29.85 in 10.0 mi South 11.5 mph - N/A   Clear
11:55 AM 51.8 °F - 37.4 °F 58% 29.84 in 10.0 mi South 11.5 mph - N/A   Clear
12:15 PM 51.8 °F - 35.6 °F 54% 29.84 in 10.0 mi South 11.5 mph - N/A   Clear
12:35 PM 53.6 °F - 37.4 °F 54% 29.83 in 10.0 mi SSW 12.7 mph - N/A   Clear
12:55 PM 53.6 °F - 37.4 °F 54% 29.82 in 10.0 mi South 13.8 mph - N/A   Clear
1:15 PM 53.6 °F - 37.4 °F 54% 29.81 in 10.0 mi South 13.8 mph - N/A   Clear
1:35 PM 53.6 °F - 37.4 °F 54% 29.80 in 10.0 mi SSW 13.8 mph - N/A   Clear
1:55 PM 53.6 °F - 37.4 °F 54% 29.80 in 10.0 mi South 15.0 mph - N/A   Clear
2:15 PM 53.6 °F - 35.6 °F 51% 29.79 in 10.0 mi South 13.8 mph - N/A   Clear
2:35 PM 53.6 °F - 35.6 °F 51% 29.78 in 10.0 mi South 13.8 mph - N/A   Clear
2:55 PM 53.6 °F - 35.6 °F 51% 29.78 in 10.0 mi South 12.7 mph - N/A   Clear
3:15 PM 53.6 °F - 35.6 °F 51% 29.78 in 10.0 mi South 9.2 mph - N/A   Clear
3:35 PM 53.6 °F - 35.6 °F 51% 29.78 in 10.0 mi South 15.0 mph - N/A   Clear
3:55 PM 51.8 °F - 33.8 °F 50% 29.77 in 10.0 mi South 13.8 mph - N/A   Clear
4:15 PM 50.0 °F - 33.8 °F 54% 29.76 in 10.0 mi SSE 12.7 mph - N/A   Clear
4:35 PM 48.2 °F - 33.8 °F 58% 29.75 in 10.0 mi SSE 9.2 mph - N/A   Clear
4:55 PM 46.4 °F 42.9 °F 33.8 °F 62% 29.75 in 10.0 mi SSE 6.9 mph - N/A   Clear
5:15 PM 46.4 °F 41.9 °F 33.8 °F 62% 29.75 in 10.0 mi SE 9.2 mph - N/A   Clear
5:35 PM 44.6 °F 39.2 °F 33.8 °F 66% 29.74 in 10.0 mi SE 10.4 mph - N/A   Clear
5:55 PM 46.4 °F 41.1 °F 33.8 °F 62% 29.74 in 10.0 mi SE 11.5 mph - N/A   Clear
6:15 PM 44.6 °F 38.8 °F 33.8 °F 66% 29.74 in 10.0 mi SE 11.5 mph - N/A   Clear
6:35 PM 44.6 °F 38.4 °F 33.8 °F 66% 29.72 in 10.0 mi SE 12.7 mph - N/A   Clear
6:55 PM 44.6 °F 38.1 °F 33.8 °F 66% 29.73 in 10.0 mi SE 13.8 mph - N/A   Clear
7:15 PM 42.8 °F 36.2 °F 32.0 °F 66% 29.72 in 10.0 mi SE 12.7 mph - N/A   Clear
7:35 PM 42.8 °F 36.6 °F 32.0 °F 66% 29.72 in 10.0 mi SSE 11.5 mph - N/A   Clear
7:55 PM 41.0 °F 34.3 °F 32.0 °F 70% 29.72 in 10.0 mi SSE 11.5 mph - N/A   Clear
8:15 PM 41.0 °F 33.9 °F 32.0 °F 70% 29.73 in 10.0 mi SSE 12.7 mph - N/A   Clear
8:35 PM 42.8 °F 35.4 °F 33.8 °F 70% 29.72 in 10.0 mi South 15.0 mph - N/A   Clear
8:55 PM 42.8 °F 35.1 °F 33.8 °F 70% 29.72 in 10.0 mi South 16.1 mph - N/A   Clear
9:15 PM 42.8 °F 35.8 °F 33.8 °F 70% 29.71 in 10.0 mi South 13.8 mph - N/A   Clear
9:35 PM 41.0 °F 33.9 °F 33.8 °F 76% 29.72 in 10.0 mi South 12.7 mph - N/A   Clear
9:55 PM 41.0 °F 34.3 °F 33.8 °F 76% 29.72 in 10.0 mi South 11.5 mph - N/A   Clear
10:15 PM 39.2 °F 32.5 °F 33.8 °F 81% 29.72 in 10.0 mi SSE 10.4 mph - N/A   Clear
10:35 PM 39.2 °F 32.0 °F 33.8 °F 81% 29.71 in 10.0 mi SSE 11.5 mph - N/A   Clear
10:55 PM 39.2 °F 31.6 °F 33.8 °F 81% 29.70 in 10.0 mi SSE 12.7 mph - N/A   Clear
11:15 PM 37.4 °F 28.9 °F 33.8 °F 87% 29.70 in 10.0 mi SSE 13.8 mph - N/A   Partly Cloudy
11:35 PM 39.2 °F 31.2 °F 33.8 °F 81% 29.69 in 10.0 mi SSE 13.8 mph - N/A   Mostly Cloudy
11:55 PM 37.4 °F 28.9 °F 33.8 °F 87% 29.68 in 10.0 mi SE 13.8 mph - N/A   Partly Cloudy